Regional Weather Roundup
Issued by NWS Newport/Morehead, NC

Current Version | Previous Version | Text Only | Print | Product List | Glossary On
Versions: 1 2 3 4 5 6 7 8 9 10 11 12 13 14 15 16 17 18 19 20 21 22 23 24 25 26 27 28 29 30 31 32 33 34 35 36 37 38 39 40 41 42 43 44 45 46 47 48 49 50
000
ASUS42 KMHX 311710
RWRMHX
WEATHER ROUNDUP FOR EASTERN NORTH CAROLINA
NATIONAL WEATHER SERVICE NEWPORT/MOREHEAD CITY NC
100 PM EDT FRI OCT 31 2014

NOTE: "FAIR" INDICATES FEW OR NO CLOUDS BELOW 12,000 FEET
WITH NO SIGNIFICANT WEATHER AND/OR OBSTRUCTIONS TO VISIBILITY

NCZ015>017-031-032-045>047-102-103-311800-
NORTH COAST

CITY           SKY/WX    TMP DP  RH WIND       PRES   REMARKS
EDENTON        SUNNY     63  43  47 N14       29.84F
ELIZABETH CITY MOSUNNY   65  46  50 N14       29.84F
KITTY HAWK     CLOUDY    61  48  62 N8G16     29.81F
MANTEO         CLOUDY    61  48  63 N12       29.82F

$$

NCZ045>047-081-094-103-104-311800-
CENTRAL COAST

CITY           SKY/WX    TMP DP  RH WIND       PRES   REMARKS
FRISCO         CLOUDY    63  52  67 NE14G23   29.79F
SWANQUARTER      N/A     63 N/A N/A NE10G18   29.79S

$$

NCZ095-097-098-100-101-311800-
SOUTHERN COAST

CITY           SKY/WX    TMP DP  RH WIND       PRES   REMARKS
BEAUFORT       PTSUNNY   64  50  60 N17G23    29.82F
CEDAR ISLAND     N/A     63 N/A N/A N8G20     29.85F
JACKSONVILLE   SUNNY     65  43  44 N9G22     29.83F
PINEY ISLAND   PTSUNNY   64  48  56 N14G22    29.81F
WILMINGTON     SUNNY     65  44  46 NE14G21   29.84F


$$

NCZ011>013-027>030-043-044-078>080-089-090>093-098-311800-
COASTAL PLAIN

CITY           SKY/WX    TMP DP  RH WIND       PRES   REMARKS
AHOSKIE        NOT AVBL
CLINTON        SUNNY     64  46  52 NE7       29.87F
ELIZABETHTOWN  SUNNY     64  44  47 N7        29.87F
GOLDSBORO      SUNNY     64  47  55 N13       29.85F
GREENVILLE     SUNNY     63  43  48 NE13      29.88F
HAVELOCK       MOSUNNY   66  45  46 NE15      29.83F
KENANSVILLE    SUNNY     63  42  47 N5        29.87F
KINSTON        SUNNY     64  41  42 NE14      29.86F
NEW BERN       SUNNY     66  46  48 N14       29.85F
RICHLANDS      SUNNY     63  43  48 N9G21     29.85F
ROCKY MOUNT    SUNNY     63  41  44 N10       29.88F
WASHINGTON     SUNNY     63  41  44 N12G18    29.85F
WHITEVILLE     SUNNY     64  45  50 N6        29.85F

$$

AMZ130-135-150-152-154-156-158-170-250-252-270-ANZ085-086-088-633-658-670-311800-
MARINE OBSERVATIONS

STATION/POSITION TIME  TEMP    WIND        PRES    WAVE   SWELL
                       AIR SEA DIR/SP/G            HT/PER HT/PER
                 (UTC) (F)     (DEG/KT/KT) (MB)    (FT/S) (FT/S)
CHESAPEAKE LIGHT 1600   58      30/ 20/ 23 1011.8
64 E VA BEACH    1700   61 66   30/ 19/ 21 1008.8    4/ 4   2/ 8
DUCK             1700   60 65   20/ 15/ 19 1009.1
2 E DUCK         NOT AVBL
10 NE DUCK       1600      67                N/A     4/ 5
OREGON INLET     1700   61 65   10/ 13/ 18 1009.2
13E OREGON INLT  1700      68                N/A     6/ 5
HATTERAS CG      1700   62 64   10/ 19/ 23 1008.9
DIAMOND BUOY     1700   65     360/ 21/ 27 1007.6    7/ 7   2/10
17 S OCRACOKE    NOT AVBL
CAPE LOOKOUT     1600   62      10/ 14/ 19 1009.8
BEAUFORT LAB     1700   62 66   20/ 11/ 18 1009.0
30 SE NEW RIVER  1700   63 74   20/ 17/ 21 1008.8    5/ 6
5 SE WRIGHTSVLE  1600   59 71   40/ 14/ 17   N/A
225 S CAPE HAT   NOT AVBL
41 SE CHARLESTON 1700   67 76   10/ 14/ 19 1009.4    6/ 7   3/ 7

$$



USA.gov is the U.S. government's official web portal to all federal, state and local government web resources and services.